This is the latest recevied weather packets stored in our database for station/object KB8DOA. If no packets are shown the sender has not sent any weather packets the latest 10 day(s).
| Time | Temp. | Humidity | Pressure | Rain* | Wind** | Luminosity | Snow |
|---|---|---|---|---|---|---|---|
| 1777635904 | 22.22° C | 93% | 1013.5 hPa | 0 mm | - | 57 W/m² | - |
| 1777635004 | 21.67° C | 93% | 1013.4 hPa | 0 mm | - | 10 W/m² | - |
| 1777634404 | 21.67° C | 93% | 1013.3 hPa | 0 mm | - | 59 W/m² | - |
| 1777633805 | 21.11° C | 93% | 1013.2 hPa | 0 mm | - | 36 W/m² | - |
| 1777633504 | 21.11° C | 93% | 1013.2 hPa | 0 mm | - | 23 W/m² | - |
| 1777632003 | 21.11° C | 92% | 1012.7 hPa | 0 mm | - | 1 W/m² | - |
| 1777631103 | 21.11° C | 92% | 1012.6 hPa | 0 mm | - | 0 W/m² | - |
| 1777629004 | 21.11° C | 91% | 1012.3 hPa | 0 mm | - | 0 W/m² | - |
| 1777628404 | 21.11° C | 91% | 1012.3 hPa | 0 mm | - | 0 W/m² | - |
| 1777628104 | 21.11° C | 91% | 1012.4 hPa | 0 mm | - | 0 W/m² | - |
| 1777623904 | 21.67° C | 89% | 1012.2 hPa | 0 mm | - | 0 W/m² | - |
| 1777623303 | 21.67° C | 89% | 1012.2 hPa | 0 mm | - | 0 W/m² | - |
| 1777622704 | 21.67° C | 88% | 1012.3 hPa | 0 mm | - | 0 W/m² | - |
| 1777622404 | 21.67° C | 88% | 1012.3 hPa | 0 mm | - | 0 W/m² | - |
| 1777617605 | 22.78° C | 84% | 1012.6 hPa | 0 mm | - | 0 W/m² | - |
| 1777617304 | 22.78° C | 84% | 1012.7 hPa | 0 mm | - | 0 W/m² | - |
| 1777616703 | 22.78° C | 83% | 1012.5 hPa | 0 mm | - | 0 W/m² | - |
| 1777614604 | 23.33° C | 80% | 1012.1 hPa | 0 mm | - | 0 W/m² | - |
| 1777614304 | 23.33° C | 79% | 1012.1 hPa | 0 mm | - | 0 W/m² | - |
| 1777607404 | 25.56° C | 74% | 1011.5 hPa | 0 mm | - | 0 W/m² | - |
| 1777607104 | 25.56° C | 74% | 1011.5 hPa | 0 mm | - | 0 W/m² | - |
| 1777605603 | 26.11° C | 72% | 1010.9 hPa | 0 mm | - | 0 W/m² | - |
| 1777605004 | 26.11° C | 72% | 1010.7 hPa | 0 mm | - | 0 W/m² | - |
| 1777602904 | 27.22° C | 70% | 1010.7 hPa | 0 mm | - | 0 W/m² | - |
| 1777602003 | 27.22° C | 69% | 1010.6 hPa | 0 mm | - | 0 W/m² | - |
* Rain latest hour (hover to see other rain measurements)
** Current wind speed in m/s (hover to see current wind gust speed)